Year,Month,Day,Hour,Minute,Value (Times are PST for temperature in C)
2014,03,23,00,00,4.20
2014,03,23,00,01,4.20
2014,03,23,00,02,4.20
2014,03,23,00,03,4.20
2014,03,23,00,04,4.20
2014,03,23,00,05,4.20
2014,03,23,00,06,4.20
2014,03,23,00,07,4.20
2014,03,23,00,08,4.20
2014,03,23,00,09,4.20
2014,03,23,00,10,4.20
2014,03,23,00,11,4.20
2014,03,23,00,12,4.20
2014,03,23,00,13,4.20
2014,03,23,00,14,4.20
2014,03,23,00,15,4.20
2014,03,23,00,16,4.20
2014,03,23,00,17,4.20
2014,03,23,00,18,4.20
2014,03,23,00,19,4.20
2014,03,23,00,20,4.20
2014,03,23,00,21,4.20
2014,03,23,00,22,4.20
2014,03,23,00,23,4.20
2014,03,23,00,24,4.20
2014,03,23,00,25,4.20
2014,03,23,00,26,4.20
2014,03,23,00,27,4.20
2014,03,23,00,28,4.20
2014,03,23,00,29,4.20
2014,03,23,00,30,4.20
2014,03,23,00,31,4.30
2014,03,23,00,32,4.30
2014,03,23,00,33,4.30
2014,03,23,00,34,4.30
2014,03,23,00,35,4.30
2014,03,23,00,36,4.30
2014,03,23,00,37,4.30
2014,03,23,00,38,4.30
2014,03,23,00,39,4.30
2014,03,23,00,40,4.30
2014,03,23,00,41,4.30
2014,03,23,00,42,4.30
2014,03,23,00,43,4.30
2014,03,23,00,44,4.30
2014,03,23,00,45,4.30
2014,03,23,00,46,4.30
2014,03,23,00,47,4.30
2014,03,23,00,48,4.30
2014,03,23,00,49,4.30
2014,03,23,00,50,4.30
2014,03,23,00,51,4.30
2014,03,23,00,52,4.30
2014,03,23,00,53,4.40
2014,03,23,00,54,4.40
2014,03,23,00,55,4.40
2014,03,23,00,56,4.40
2014,03,23,00,57,4.40
2014,03,23,00,58,4.40
2014,03,23,00,59,4.30
2014,03,23,01,00,4.30
2014,03,23,01,01,4.30
2014,03,23,01,02,4.30
2014,03,23,01,03,4.30
2014,03,23,01,04,4.30
2014,03,23,01,05,4.30
2014,03,23,01,06,4.30
2014,03,23,01,07,4.30
2014,03,23,01,08,4.30
2014,03,23,01,09,4.30
2014,03,23,01,10,4.30
2014,03,23,01,11,4.30
2014,03,23,01,12,4.20
2014,03,23,01,13,4.20
2014,03,23,01,14,4.20
2014,03,23,01,15,4.20
2014,03,23,01,16,4.20
2014,03,23,01,17,4.20
2014,03,23,01,18,4.20
2014,03,23,01,19,4.30
2014,03,23,01,20,4.20
2014,03,23,01,21,4.30
2014,03,23,01,22,4.30
2014,03,23,01,23,4.30
2014,03,23,01,24,4.30
2014,03,23,01,25,4.30
2014,03,23,01,26,4.30
2014,03,23,01,27,4.20
2014,03,23,01,28,4.20
2014,03,23,01,29,4.20
2014,03,23,01,30,4.20
2014,03,23,01,31,4.20
2014,03,23,01,32,4.20
2014,03,23,01,33,4.30
2014,03,23,01,34,4.30
2014,03,23,01,35,4.30
2014,03,23,01,36,4.30
2014,03,23,01,37,4.30
2014,03,23,01,38,4.30
2014,03,23,01,39,4.30
2014,03,23,01,40,4.30
2014,03,23,01,41,4.30
2014,03,23,01,42,4.30
2014,03,23,01,43,4.30
2014,03,23,01,44,4.30
2014,03,23,01,45,4.30
2014,03,23,01,46,4.30
2014,03,23,01,47,4.30
2014,03,23,01,48,4.30
2014,03,23,01,49,4.30
2014,03,23,01,50,4.30
2014,03,23,01,51,4.30
2014,03,23,01,52,4.30
2014,03,23,01,53,4.30
2014,03,23,01,54,4.30
2014,03,23,01,55,4.30
2014,03,23,01,56,4.30
2014,03,23,01,57,4.30
2014,03,23,01,58,4.30
2014,03,23,01,59,4.30
2014,03,23,02,00,4.30
2014,03,23,02,01,4.30
2014,03,23,02,02,4.30
2014,03,23,02,03,4.30
2014,03,23,02,04,4.20
2014,03,23,02,05,4.20
2014,03,23,02,06,4.20
2014,03,23,02,07,4.20
2014,03,23,02,08,4.10
2014,03,23,02,09,4.10
2014,03,23,02,10,4.10
2014,03,23,02,11,4.10
2014,03,23,02,12,4.10
2014,03,23,02,13,4.10
2014,03,23,02,14,4.00
2014,03,23,02,15,4.00
2014,03,23,02,16,4.00
2014,03,23,02,17,3.90
2014,03,23,02,18,3.90
2014,03,23,02,19,3.90
2014,03,23,02,20,3.90
2014,03,23,02,21,3.90
2014,03,23,02,22,3.90
2014,03,23,02,23,3.80
2014,03,23,02,24,3.80
2014,03,23,02,25,3.80
2014,03,23,02,26,3.80
2014,03,23,02,27,3.80
2014,03,23,02,28,3.80
2014,03,23,02,29,3.70
2014,03,23,02,30,3.70
2014,03,23,02,31,3.70
2014,03,23,02,32,3.70
2014,03,23,02,33,3.70
2014,03,23,02,34,3.70
2014,03,23,02,35,3.70
2014,03,23,02,36,3.70
2014,03,23,02,37,3.70
2014,03,23,02,38,3.60
2014,03,23,02,39,3.60
2014,03,23,02,40,3.60
2014,03,23,02,41,3.60
2014,03,23,02,42,3.60
2014,03,23,02,43,3.60
2014,03,23,02,44,3.60
2014,03,23,02,45,3.60
2014,03,23,02,46,3.50
2014,03,23,02,47,3.50
2014,03,23,02,48,3.50
2014,03,23,02,49,3.50
2014,03,23,02,50,3.50
2014,03,23,02,51,3.50
2014,03,23,02,52,3.50
2014,03,23,02,53,3.40
2014,03,23,02,54,3.40
2014,03,23,02,55,3.40
2014,03,23,02,56,3.40
2014,03,23,02,57,3.40
2014,03,23,02,58,3.40
2014,03,23,02,59,3.40
2014,03,23,03,00,3.40
2014,03,23,03,01,3.40
2014,03,23,03,02,3.40
2014,03,23,03,03,3.40
2014,03,23,03,04,3.40
2014,03,23,03,05,3.40
2014,03,23,03,06,3.50
2014,03,23,03,07,3.50
2014,03,23,03,08,3.50
2014,03,23,03,09,3.50
2014,03,23,03,10,3.50
2014,03,23,03,11,3.50
2014,03,23,03,12,3.50
2014,03,23,03,13,3.50
2014,03,23,03,14,3.50
2014,03,23,03,15,3.60
2014,03,23,03,16,3.60
2014,03,23,03,17,3.60
2014,03,23,03,18,3.60
2014,03,23,03,19,3.60
2014,03,23,03,20,3.60
2014,03,23,03,21,3.60
2014,03,23,03,22,3.60
2014,03,23,03,23,3.60
2014,03,23,03,24,3.60
2014,03,23,03,25,3.60
2014,03,23,03,26,3.60
2014,03,23,03,27,3.60
2014,03,23,03,28,3.60
2014,03,23,03,29,3.60
2014,03,23,03,30,3.60
2014,03,23,03,31,3.60
2014,03,23,03,32,3.60
2014,03,23,03,33,3.60
2014,03,23,03,34,3.60
2014,03,23,03,35,3.60
2014,03,23,03,36,3.60
2014,03,23,03,37,3.60
2014,03,23,03,38,3.60
2014,03,23,03,39,3.60
2014,03,23,03,40,3.60
2014,03,23,03,41,3.60
2014,03,23,03,42,3.70
2014,03,23,03,43,3.70
2014,03,23,03,44,3.70
2014,03,23,03,45,3.70
2014,03,23,03,46,3.70
2014,03,23,03,47,3.70
2014,03,23,03,48,3.70
2014,03,23,03,49,3.70
2014,03,23,03,50,3.70
2014,03,23,03,51,3.70
2014,03,23,03,52,3.70
2014,03,23,03,53,3.70
2014,03,23,03,54,3.70
2014,03,23,03,55,3.60
2014,03,23,03,56,3.60
2014,03,23,03,57,3.60
2014,03,23,03,58,3.60
2014,03,23,03,59,3.60
2014,03,23,04,00,3.60
2014,03,23,04,01,3.60
2014,03,23,04,02,3.60
2014,03,23,04,03,3.50
2014,03,23,04,04,3.50
2014,03,23,04,05,3.50
2014,03,23,04,06,3.50
2014,03,23,04,07,3.50
2014,03,23,04,08,3.50
2014,03,23,04,09,3.50
2014,03,23,04,10,3.40
2014,03,23,04,11,3.40
2014,03,23,04,12,3.40
2014,03,23,04,13,3.40
2014,03,23,04,14,3.40
2014,03,23,04,15,3.40
2014,03,23,04,16,3.40
2014,03,23,04,17,3.40
2014,03,23,04,18,3.40
2014,03,23,04,19,3.40
2014,03,23,04,20,3.40
2014,03,23,04,21,3.40
2014,03,23,04,22,3.40
2014,03,23,04,23,3.40
2014,03,23,04,24,3.40
2014,03,23,04,25,3.40
2014,03,23,04,26,3.40
2014,03,23,04,27,3.30
2014,03,23,04,28,3.30
2014,03,23,04,29,3.30
2014,03,23,04,30,3.30
2014,03,23,04,31,3.30
2014,03,23,04,32,3.30
2014,03,23,04,33,3.30
2014,03,23,04,34,3.20
2014,03,23,04,35,3.20
2014,03,23,04,36,3.20
2014,03,23,04,37,3.20
2014,03,23,04,38,3.20
2014,03,23,04,39,3.20
2014,03,23,04,40,3.20
2014,03,23,04,41,3.20
2014,03,23,04,42,3.20
2014,03,23,04,43,3.20
2014,03,23,04,44,3.20
2014,03,23,04,45,3.20
2014,03,23,04,46,3.20
2014,03,23,04,47,3.20
2014,03,23,04,48,3.20
2014,03,23,04,49,3.10
2014,03,23,04,50,3.10
2014,03,23,04,51,3.10
2014,03,23,04,52,3.10
2014,03,23,04,53,3.10
2014,03,23,04,54,3.10
2014,03,23,04,55,3.10
2014,03,23,04,56,3.10
2014,03,23,04,57,3.10
2014,03,23,04,58,3.10
2014,03,23,04,59,3.10
2014,03,23,05,00,3.10
2014,03,23,05,01,3.10
2014,03,23,05,02,3.10
2014,03,23,05,03,3.10
2014,03,23,05,04,3.10
2014,03,23,05,05,3.10
2014,03,23,05,06,3.10
2014,03,23,05,07,3.10
2014,03,23,05,08,3.10
2014,03,23,05,09,3.10
2014,03,23,05,10,3.10
2014,03,23,05,11,3.10
2014,03,23,05,12,3.10
2014,03,23,05,13,3.10
2014,03,23,05,14,3.10
2014,03,23,05,15,3.10
2014,03,23,05,16,3.10
2014,03,23,05,17,3.10
2014,03,23,05,18,3.10
2014,03,23,05,19,3.10
2014,03,23,05,20,3.10
2014,03,23,05,21,3.10
2014,03,23,05,22,3.20
2014,03,23,05,23,3.20
2014,03,23,05,24,3.20
2014,03,23,05,25,3.20
2014,03,23,05,26,3.30
2014,03,23,05,27,3.30
2014,03,23,05,28,3.40
2014,03,23,05,29,3.40
2014,03,23,05,30,3.50
2014,03,23,05,31,3.50
2014,03,23,05,32,3.60
2014,03,23,05,33,3.60
2014,03,23,05,34,3.60
2014,03,23,05,35,3.70
2014,03,23,05,36,3.70
2014,03,23,05,37,3.70
2014,03,23,05,38,3.80
2014,03,23,05,39,3.80
2014,03,23,05,40,3.90
2014,03,23,05,41,3.90
2014,03,23,05,42,4.00
2014,03,23,05,43,4.00
2014,03,23,05,44,4.10
2014,03,23,05,45,4.10
2014,03,23,05,46,4.10
2014,03,23,05,47,4.10
2014,03,23,05,48,4.20
2014,03,23,05,49,4.20
2014,03,23,05,50,4.20
2014,03,23,05,51,4.20
2014,03,23,05,52,4.20
2014,03,23,05,53,4.20
2014,03,23,05,54,4.30
2014,03,23,05,55,4.30
2014,03,23,05,56,4.30
2014,03,23,05,57,4.30
2014,03,23,05,58,4.30
2014,03,23,05,59,4.30
2014,03,23,06,00,4.30
2014,03,23,06,01,4.30
2014,03,23,06,02,4.40
2014,03,23,06,03,4.40
2014,03,23,06,04,4.40
2014,03,23,06,05,4.40
2014,03,23,06,06,4.40
2014,03,23,06,07,4.40
2014,03,23,06,08,4.40
2014,03,23,06,09,4.40
2014,03,23,06,10,4.40
2014,03,23,06,11,4.40
2014,03,23,06,12,4.40
2014,03,23,06,13,4.40
2014,03,23,06,14,4.50
2014,03,23,06,15,4.50
2014,03,23,06,16,4.50
2014,03,23,06,17,4.50
2014,03,23,06,18,4.50
2014,03,23,06,19,4.50
2014,03,23,06,20,4.50
2014,03,23,06,21,4.50
2014,03,23,06,22,4.50
2014,03,23,06,23,4.50
2014,03,23,06,24,4.50
2014,03,23,06,25,4.40
2014,03,23,06,26,4.40
2014,03,23,06,27,4.40
2014,03,23,06,28,4.40
2014,03,23,06,29,4.40
2014,03,23,06,30,4.40
2014,03,23,06,31,4.40
2014,03,23,06,32,4.40
2014,03,23,06,33,4.40
2014,03,23,06,34,4.40
2014,03,23,06,35,4.40
2014,03,23,06,36,4.30
2014,03,23,06,37,4.30
2014,03,23,06,38,4.30
2014,03,23,06,39,4.30
2014,03,23,06,40,4.30
2014,03,23,06,41,4.30
2014,03,23,06,42,4.30
2014,03,23,06,43,4.30
2014,03,23,06,44,4.30
2014,03,23,06,45,4.30
2014,03,23,06,46,4.30
2014,03,23,06,47,4.30
2014,03,23,06,48,4.30
2014,03,23,06,49,4.30
2014,03,23,06,50,4.30
2014,03,23,06,51,4.30
2014,03,23,06,52,4.30
2014,03,23,06,53,4.30
2014,03,23,06,54,4.30
2014,03,23,06,55,4.30
2014,03,23,06,56,4.30
2014,03,23,06,57,4.30
2014,03,23,06,58,4.30
2014,03,23,06,59,4.30
2014,03,23,07,00,4.30
2014,03,23,07,01,4.30
2014,03,23,07,02,4.30
2014,03,23,07,03,4.30
2014,03,23,07,04,4.30
2014,03,23,07,05,4.30
2014,03,23,07,06,4.30
2014,03,23,07,07,4.30
2014,03,23,07,08,4.20
2014,03,23,07,09,4.20
2014,03,23,07,10,4.20
2014,03,23,07,11,4.30
2014,03,23,07,12,4.30
2014,03,23,07,13,4.30
2014,03,23,07,14,4.30
2014,03,23,07,15,4.30
2014,03,23,07,16,4.30
2014,03,23,07,17,4.30
2014,03,23,07,18,4.30
2014,03,23,07,19,4.30
2014,03,23,07,20,4.30
2014,03,23,07,21,4.30
2014,03,23,07,22,4.30
2014,03,23,07,23,4.30
2014,03,23,07,24,4.30
2014,03,23,07,25,4.30
2014,03,23,07,26,4.30
2014,03,23,07,27,4.30
2014,03,23,07,28,4.30
2014,03,23,07,29,4.20
2014,03,23,07,30,4.20
2014,03,23,07,31,4.20
2014,03,23,07,32,4.30
2014,03,23,07,33,4.30
2014,03,23,07,34,4.30
2014,03,23,07,35,4.30
2014,03,23,07,36,4.30
2014,03,23,07,37,4.30
2014,03,23,07,38,4.30
2014,03,23,07,39,4.30
2014,03,23,07,40,4.30
2014,03,23,07,41,4.30
2014,03,23,07,42,4.30
2014,03,23,07,43,4.30
2014,03,23,07,44,4.30
2014,03,23,07,45,4.30
2014,03,23,07,46,4.30
2014,03,23,07,47,4.30
2014,03,23,07,48,4.30
2014,03,23,07,49,4.40
2014,03,23,07,50,4.40
2014,03,23,07,51,4.40
2014,03,23,07,52,4.40
2014,03,23,07,53,4.40
2014,03,23,07,54,4.40
2014,03,23,07,55,4.40
2014,03,23,07,56,4.40
2014,03,23,07,57,4.50
2014,03,23,07,58,4.50
2014,03,23,07,59,4.50
2014,03,23,08,00,4.50
2014,03,23,08,01,4.50
2014,03,23,08,02,4.50
2014,03,23,08,03,4.50
2014,03,23,08,04,4.50
2014,03,23,08,05,4.50
2014,03,23,08,06,4.50
2014,03,23,08,07,4.60
2014,03,23,08,08,4.60
2014,03,23,08,09,4.60
2014,03,23,08,10,4.60
2014,03,23,08,11,4.60
2014,03,23,08,12,4.70
2014,03,23,08,13,4.70
2014,03,23,08,14,4.70
2014,03,23,08,15,4.70
2014,03,23,08,16,4.70
2014,03,23,08,17,4.70
2014,03,23,08,18,4.70
2014,03,23,08,19,4.70
2014,03,23,08,20,4.70
2014,03,23,08,21,4.70
2014,03,23,08,22,4.70
2014,03,23,08,23,4.70
2014,03,23,08,24,4.70
2014,03,23,08,25,4.70
2014,03,23,08,26,4.70
2014,03,23,08,27,4.70
2014,03,23,08,28,4.70
2014,03,23,08,29,4.70
2014,03,23,08,30,4.70
2014,03,23,08,31,4.70
2014,03,23,08,32,4.70
2014,03,23,08,33,4.70
2014,03,23,08,34,4.70
2014,03,23,08,35,4.70
2014,03,23,08,36,4.80
2014,03,23,08,37,4.80
2014,03,23,08,38,4.80
2014,03,23,08,39,4.80
2014,03,23,08,40,4.80
2014,03,23,08,41,4.80
2014,03,23,08,42,4.80
2014,03,23,08,43,4.80
2014,03,23,08,44,4.80
2014,03,23,08,45,4.90
2014,03,23,08,46,4.90
2014,03,23,08,47,4.90
2014,03,23,08,48,4.90
2014,03,23,08,49,5.00
2014,03,23,08,50,5.00
2014,03,23,08,51,5.00
2014,03,23,08,52,5.10
2014,03,23,08,53,5.10
2014,03,23,08,54,5.10
2014,03,23,08,55,5.10
2014,03,23,08,56,5.20
2014,03,23,08,57,5.20
2014,03,23,08,58,5.20
2014,03,23,08,59,5.20
2014,03,23,09,00,5.30
2014,03,23,09,01,5.30
2014,03,23,09,02,5.30
2014,03,23,09,03,5.30
2014,03,23,09,04,5.30
2014,03,23,09,05,5.30
2014,03,23,09,06,5.30
2014,03,23,09,07,5.40
2014,03,23,09,08,5.40
2014,03,23,09,09,5.40
2014,03,23,09,10,5.40
2014,03,23,09,11,5.50
2014,03,23,09,12,5.50
2014,03,23,09,13,5.60
2014,03,23,09,14,5.60
2014,03,23,09,15,5.60
2014,03,23,09,16,5.60
2014,03,23,09,17,5.60
2014,03,23,09,18,5.70
2014,03,23,09,19,5.70
2014,03,23,09,20,5.70
2014,03,23,09,21,5.70
2014,03,23,09,22,5.70
2014,03,23,09,23,5.80
2014,03,23,09,24,5.80
2014,03,23,09,25,5.80
2014,03,23,09,26,5.80
2014,03,23,09,27,5.80
2014,03,23,09,28,5.80
2014,03,23,09,29,5.90
2014,03,23,09,30,5.90
2014,03,23,09,31,5.90
2014,03,23,09,32,5.90
2014,03,23,09,33,6.00
2014,03,23,09,34,6.00
2014,03,23,09,35,6.10
2014,03,23,09,36,6.10
2014,03,23,09,37,6.20
2014,03,23,09,38,6.20
2014,03,23,09,39,6.20
2014,03,23,09,40,6.30
2014,03,23,09,41,6.30
2014,03,23,09,42,6.30
2014,03,23,09,43,6.30
2014,03,23,09,44,6.30
2014,03,23,09,45,6.40
2014,03,23,09,46,6.40
2014,03,23,09,47,6.40
2014,03,23,09,48,6.40
2014,03,23,09,49,6.50
2014,03,23,09,50,6.50
2014,03,23,09,51,6.50
2014,03,23,09,52,6.60
2014,03,23,09,53,6.70
2014,03,23,09,54,6.70
2014,03,23,09,55,6.70
2014,03,23,09,56,6.80
2014,03,23,09,57,6.80
2014,03,23,09,58,6.80
2014,03,23,09,59,6.90
2014,03,23,10,00,6.90
2014,03,23,10,01,6.90
2014,03,23,10,02,7.00
2014,03,23,10,03,7.00
2014,03,23,10,04,7.00
2014,03,23,10,05,7.00
2014,03,23,10,06,7.10
2014,03,23,10,07,7.10
2014,03,23,10,08,7.20
2014,03,23,10,09,7.20
2014,03,23,10,10,7.20
2014,03,23,10,11,7.20
2014,03,23,10,12,7.20
2014,03,23,10,13,7.20
2014,03,23,10,14,7.30
2014,03,23,10,15,7.30
2014,03,23,10,16,7.30
2014,03,23,10,17,7.40
2014,03,23,10,18,7.40
2014,03,23,10,19,7.40
2014,03,23,10,20,7.40
2014,03,23,10,21,7.40
2014,03,23,10,22,7.40
2014,03,23,10,23,7.30
2014,03,23,10,24,7.30
2014,03,23,10,25,7.30
2014,03,23,10,26,7.30
2014,03,23,10,27,7.30
2014,03,23,10,28,7.30
2014,03,23,10,29,7.40
2014,03,23,10,30,7.50
2014,03,23,10,31,7.50
2014,03,23,10,32,7.60
2014,03,23,10,33,7.60
2014,03,23,10,34,7.60
2014,03,23,10,35,7.70
2014,03,23,10,36,7.60
2014,03,23,10,37,7.60
2014,03,23,10,38,7.60
2014,03,23,10,39,7.60
2014,03,23,10,40,7.60
2014,03,23,10,41,7.60
2014,03,23,10,42,7.70
2014,03,23,10,43,7.70
2014,03,23,10,44,7.80
2014,03,23,10,45,7.90
2014,03,23,10,46,8.00
2014,03,23,10,47,8.00
2014,03,23,10,48,8.10
2014,03,23,10,49,8.00
2014,03,23,10,50,8.00
2014,03,23,10,51,7.90
2014,03,23,10,52,7.90
2014,03,23,10,53,7.80
2014,03,23,10,54,7.80
2014,03,23,10,55,7.90
2014,03,23,10,56,7.90
2014,03,23,10,57,8.00
2014,03,23,10,58,8.00
2014,03,23,10,59,8.10
2014,03,23,11,00,8.10
2014,03,23,11,01,8.20
2014,03,23,11,02,8.20
2014,03,23,11,03,8.20
2014,03,23,11,04,8.20
2014,03,23,11,05,8.20
2014,03,23,11,06,8.20
2014,03,23,11,07,8.10
2014,03,23,11,08,8.10
2014,03,23,11,09,8.10
2014,03,23,11,10,8.10
2014,03,23,11,11,8.10
2014,03,23,11,12,8.10
2014,03,23,11,13,8.10
2014,03,23,11,14,8.10
2014,03,23,11,15,8.10
2014,03,23,11,16,8.20
2014,03,23,11,17,8.20
2014,03,23,11,18,8.20
2014,03,23,11,19,8.20
2014,03,23,11,20,8.10
2014,03,23,11,21,8.10
2014,03,23,11,22,8.00
2014,03,23,11,23,7.90
2014,03,23,11,24,7.90
2014,03,23,11,25,7.80
2014,03,23,11,26,7.80
2014,03,23,11,27,7.80
2014,03,23,11,28,7.80
2014,03,23,11,29,7.70
2014,03,23,11,30,7.70
2014,03,23,11,31,7.70
2014,03,23,11,32,7.60
2014,03,23,11,33,7.60
2014,03,23,11,34,7.50
2014,03,23,11,35,7.40
2014,03,23,11,36,7.40
2014,03,23,11,37,7.40
2014,03,23,11,38,7.30
2014,03,23,11,39,7.30
2014,03,23,11,40,7.30
2014,03,23,11,41,7.30
2014,03,23,11,42,7.40
2014,03,23,11,43,7.40
2014,03,23,11,44,7.40
2014,03,23,11,45,7.40
2014,03,23,11,46,7.40
2014,03,23,11,47,7.40
2014,03,23,11,48,7.50
2014,03,23,11,49,7.50
2014,03,23,11,50,7.50
2014,03,23,11,51,7.50
2014,03,23,11,52,7.60
2014,03,23,11,53,7.60
2014,03,23,11,54,7.60
2014,03,23,11,55,7.70
2014,03,23,11,56,7.70
2014,03,23,11,57,7.70
2014,03,23,11,58,7.70
2014,03,23,11,59,7.60
2014,03,23,12,00,7.70
2014,03,23,12,01,7.70
2014,03,23,12,02,7.70
2014,03,23,12,03,7.70
2014,03,23,12,04,7.70
2014,03,23,12,05,7.70
2014,03,23,12,06,7.70
2014,03,23,12,07,7.70
2014,03,23,12,08,7.70
2014,03,23,12,09,7.70
2014,03,23,12,10,7.70
2014,03,23,12,11,7.70
2014,03,23,12,12,7.60
2014,03,23,12,13,7.60
2014,03,23,12,14,7.60
2014,03,23,12,15,7.60
2014,03,23,12,16,7.60
2014,03,23,12,17,7.60
2014,03,23,12,18,7.60
2014,03,23,12,19,7.60
2014,03,23,12,20,7.50
2014,03,23,12,21,7.50
2014,03,23,12,22,7.50
2014,03,23,12,23,7.50
2014,03,23,12,24,7.50
2014,03,23,12,25,7.50
2014,03,23,12,26,7.50
2014,03,23,12,27,7.60
2014,03,23,12,28,7.60
2014,03,23,12,29,7.60
2014,03,23,12,30,7.60
2014,03,23,12,31,7.60
2014,03,23,12,32,7.70
2014,03,23,12,33,7.60
2014,03,23,12,34,7.60
2014,03,23,12,35,7.60
2014,03,23,12,36,7.60
2014,03,23,12,37,7.60
2014,03,23,12,38,7.50
2014,03,23,12,39,7.50
2014,03,23,12,40,7.40
2014,03,23,12,41,7.40
2014,03,23,12,42,7.40
2014,03,23,12,43,7.40
2014,03,23,12,44,7.40
2014,03,23,12,45,7.40
2014,03,23,12,46,7.40
2014,03,23,12,47,7.40
2014,03,23,12,48,7.40
2014,03,23,12,49,7.40
2014,03,23,12,50,7.40
2014,03,23,12,51,7.40
2014,03,23,12,52,7.40
2014,03,23,12,53,7.40
2014,03,23,12,54,7.40
2014,03,23,12,55,7.40
2014,03,23,12,56,7.40
2014,03,23,12,57,7.40
2014,03,23,12,58,7.40
2014,03,23,12,59,7.40
2014,03,23,13,00,7.40
2014,03,23,13,01,7.40
2014,03,23,13,02,7.50
2014,03,23,13,03,7.50
2014,03,23,13,04,7.50
2014,03,23,13,05,7.50
2014,03,23,13,06,7.50
2014,03,23,13,07,7.50
2014,03,23,13,08,7.50
2014,03,23,13,09,7.50
2014,03,23,13,10,7.50
2014,03,23,13,11,7.40
2014,03,23,13,12,7.40
2014,03,23,13,13,7.40
2014,03,23,13,14,7.40
2014,03,23,13,15,7.40
2014,03,23,13,16,7.50
2014,03,23,13,17,7.50
2014,03,23,13,18,7.60
2014,03,23,13,19,7.60
2014,03,23,13,20,7.60
2014,03,23,13,21,7.60
2014,03,23,13,22,7.60
2014,03,23,13,23,7.60
2014,03,23,13,24,7.70
2014,03,23,13,25,7.70
2014,03,23,13,26,7.70
2014,03,23,13,27,7.80
2014,03,23,13,28,7.80
2014,03,23,13,29,7.80
2014,03,23,13,30,7.80
2014,03,23,13,31,7.80
2014,03,23,13,32,7.80
2014,03,23,13,33,7.90
2014,03,23,13,34,7.90
2014,03,23,13,35,7.90
2014,03,23,13,36,7.90
2014,03,23,13,37,7.90
2014,03,23,13,38,8.00
2014,03,23,13,39,8.00
2014,03,23,13,40,8.10
2014,03,23,13,41,8.10
2014,03,23,13,42,8.20
2014,03,23,13,43,8.20
2014,03,23,13,44,8.20
2014,03,23,13,45,8.30
2014,03,23,13,46,8.30
2014,03,23,13,47,8.30
2014,03,23,13,48,8.20
2014,03,23,13,49,8.20
2014,03,23,13,50,8.20
2014,03,23,13,51,8.20
2014,03,23,13,52,8.20
2014,03,23,13,53,8.20
2014,03,23,13,54,8.10
2014,03,23,13,55,8.10
2014,03,23,13,56,8.00
2014,03,23,13,57,8.00
2014,03,23,13,58,8.00
2014,03,23,13,59,8.10
2014,03,23,14,00,8.10
2014,03,23,14,01,8.20
2014,03,23,14,02,8.20
2014,03,23,14,03,8.30
2014,03,23,14,04,8.30
2014,03,23,14,05,8.30
2014,03,23,14,06,8.30
2014,03,23,14,07,8.30
2014,03,23,14,08,8.40
2014,03,23,14,09,8.50
2014,03,23,14,10,8.50
2014,03,23,14,11,8.70
2014,03,23,14,12,8.80
2014,03,23,14,13,8.80
2014,03,23,14,14,8.90
2014,03,23,14,15,8.90
2014,03,23,14,16,8.90
2014,03,23,14,17,8.90
2014,03,23,14,18,8.90
2014,03,23,14,19,8.80
2014,03,23,14,20,8.80
2014,03,23,14,21,8.70
2014,03,23,14,22,8.70
2014,03,23,14,23,8.70
2014,03,23,14,24,8.70
2014,03,23,14,25,8.70
2014,03,23,14,26,8.70
2014,03,23,14,27,8.70
2014,03,23,14,28,8.70
2014,03,23,14,29,8.60
2014,03,23,14,30,8.60
2014,03,23,14,31,8.60
2014,03,23,14,32,8.60
2014,03,23,14,33,8.70
2014,03,23,14,34,8.70
2014,03,23,14,35,8.70
2014,03,23,14,36,8.70
2014,03,23,14,37,8.70
2014,03,23,14,38,8.70
2014,03,23,14,39,8.70
2014,03,23,14,40,8.70
2014,03,23,14,41,8.70
2014,03,23,14,42,8.70
2014,03,23,14,43,8.70
2014,03,23,14,44,8.70
2014,03,23,14,45,8.70
2014,03,23,14,46,8.70
2014,03,23,14,47,8.70
2014,03,23,14,48,8.80
2014,03,23,14,49,8.80
2014,03,23,14,50,8.80
2014,03,23,14,51,8.80
2014,03,23,14,52,8.80
2014,03,23,14,53,8.80
2014,03,23,14,54,8.80
2014,03,23,14,55,8.90
2014,03,23,14,56,8.90
2014,03,23,14,57,8.90
2014,03,23,14,58,8.90
2014,03,23,14,59,8.90
2014,03,23,15,00,8.90
2014,03,23,15,01,8.90
2014,03,23,15,02,8.90
2014,03,23,15,03,8.90
2014,03,23,15,04,8.90
2014,03,23,15,05,8.90
2014,03,23,15,06,9.00
2014,03,23,15,07,9.00
2014,03,23,15,08,9.00
2014,03,23,15,09,9.00
2014,03,23,15,10,9.00
2014,03,23,15,11,8.90
2014,03,23,15,12,8.90
2014,03,23,15,13,8.90
2014,03,23,15,14,8.90
2014,03,23,15,15,9.00
2014,03,23,15,16,9.00
2014,03,23,15,17,9.00
2014,03,23,15,18,9.00
2014,03,23,15,19,9.10
2014,03,23,15,20,9.10
2014,03,23,15,21,9.10
2014,03,23,15,22,9.10
2014,03,23,15,23,9.10
2014,03,23,15,24,9.10
2014,03,23,15,25,9.10
2014,03,23,15,26,9.10
2014,03,23,15,27,9.10
2014,03,23,15,28,9.10
2014,03,23,15,29,9.00
2014,03,23,15,30,9.00
2014,03,23,15,31,9.00
2014,03,23,15,32,9.00
2014,03,23,15,33,9.00
2014,03,23,15,34,9.00
2014,03,23,15,35,9.00
2014,03,23,15,36,9.00
2014,03,23,15,37,9.00
2014,03,23,15,38,9.00
2014,03,23,15,39,9.00
2014,03,23,15,40,9.00
2014,03,23,15,41,9.00
2014,03,23,15,42,9.10
2014,03,23,15,43,9.10
2014,03,23,15,44,9.10
2014,03,23,15,45,9.00
2014,03,23,15,46,9.00
2014,03,23,15,47,9.10
2014,03,23,15,48,9.10
2014,03,23,15,49,9.10
2014,03,23,15,50,9.20
2014,03,23,15,51,9.20
2014,03,23,15,52,9.10
2014,03,23,15,53,9.10
2014,03,23,15,54,9.10
2014,03,23,15,55,9.10
2014,03,23,15,56,9.10
2014,03,23,15,57,9.10
2014,03,23,15,58,9.00
2014,03,23,15,59,9.00
2014,03,23,16,00,8.90
2014,03,23,16,01,8.80
2014,03,23,16,02,8.80
2014,03,23,16,03,8.80
2014,03,23,16,04,8.80
2014,03,23,16,05,8.80
2014,03,23,16,06,8.80
2014,03,23,16,07,8.80
2014,03,23,16,08,8.80
2014,03,23,16,09,8.70
2014,03,23,16,10,8.70
2014,03,23,16,11,8.70
2014,03,23,16,12,8.70
2014,03,23,16,13,8.70
2014,03,23,16,14,8.70
2014,03,23,16,15,8.70
2014,03,23,16,16,8.70
2014,03,23,16,17,8.70
2014,03,23,16,18,8.70
2014,03,23,16,19,8.70
2014,03,23,16,20,8.70
2014,03,23,16,21,8.80
2014,03,23,16,22,8.80
2014,03,23,16,23,8.80
2014,03,23,16,24,8.80
2014,03,23,16,25,8.80
2014,03,23,16,26,8.80
2014,03,23,16,27,8.80
2014,03,23,16,28,8.80
2014,03,23,16,29,8.80
2014,03,23,16,30,8.80
2014,03,23,16,31,8.80
2014,03,23,16,32,8.80
2014,03,23,16,33,8.70
2014,03,23,16,34,8.70
2014,03,23,16,35,8.70
2014,03,23,16,36,8.60
2014,03,23,16,37,8.60
2014,03,23,16,38,8.60
2014,03,23,16,39,8.60
2014,03,23,16,40,8.60
2014,03,23,16,41,8.60
2014,03,23,16,42,8.60
2014,03,23,16,43,8.60
2014,03,23,16,44,8.60
2014,03,23,16,45,8.60
2014,03,23,16,46,8.60
2014,03,23,16,47,8.50
2014,03,23,16,48,8.50
2014,03,23,16,49,8.50
2014,03,23,16,50,8.50
2014,03,23,16,51,8.50
2014,03,23,16,52,8.50
2014,03,23,16,53,8.50
2014,03,23,16,54,8.60
2014,03,23,16,55,8.60
2014,03,23,16,56,8.60
2014,03,23,16,57,8.70
2014,03,23,16,58,8.70
2014,03,23,16,59,8.70
2014,03,23,17,00,8.70
2014,03,23,17,01,8.70
2014,03,23,17,02,8.70
2014,03,23,17,03,8.70
2014,03,23,17,04,8.70
2014,03,23,17,05,8.70
2014,03,23,17,06,8.60
2014,03,23,17,07,8.60
2014,03,23,17,08,8.60
2014,03,23,17,09,8.60
2014,03,23,17,10,8.60
2014,03,23,17,11,8.60
2014,03,23,17,12,8.60
2014,03,23,17,13,8.60
2014,03,23,17,14,8.50
2014,03,23,17,15,8.60
2014,03,23,17,16,8.60
2014,03,23,17,17,8.60
2014,03,23,17,18,8.60
2014,03,23,17,19,8.50
2014,03,23,17,20,8.50
2014,03,23,17,21,8.50
2014,03,23,17,22,8.50
2014,03,23,17,23,8.40
2014,03,23,17,24,8.40
2014,03,23,17,25,8.40
2014,03,23,17,26,8.40
2014,03,23,17,27,8.40
2014,03,23,17,28,8.30
2014,03,23,17,29,8.30
2014,03,23,17,30,8.30
2014,03,23,17,31,8.30
2014,03,23,17,32,8.30
2014,03,23,17,33,8.30
2014,03,23,17,34,8.30
2014,03,23,17,35,8.30
2014,03,23,17,36,8.30
2014,03,23,17,37,8.30
2014,03,23,17,38,8.30
2014,03,23,17,39,8.30
2014,03,23,17,40,8.30
2014,03,23,17,41,8.20
2014,03,23,17,42,8.20
2014,03,23,17,43,8.20
2014,03,23,17,44,8.20
2014,03,23,17,45,8.10
2014,03,23,17,46,8.10
2014,03,23,17,47,8.10
2014,03,23,17,48,8.10
2014,03,23,17,49,8.00
2014,03,23,17,50,8.00
2014,03,23,17,51,8.00
2014,03,23,17,52,7.90
2014,03,23,17,53,7.90
2014,03,23,17,54,7.90
2014,03,23,17,55,7.90
2014,03,23,17,56,7.90
2014,03,23,17,57,7.80
2014,03,23,17,58,7.80
2014,03,23,17,59,7.80
2014,03,23,18,00,7.70
2014,03,23,18,01,7.70
2014,03,23,18,02,7.70
2014,03,23,18,03,7.70
2014,03,23,18,04,7.60
2014,03,23,18,05,7.60
2014,03,23,18,06,7.60